Location: Newark
(47.5989°N, 4.6950°E)
Time: 04:34:59
(UTC+00:00)

Envisat - Visible Passes

Search period start: 15 November 2019 00:00
Search period end: 25 November 2019 00:00
Orbit: 764 x 766 km, 98.1° (Epoch: 14 November)

Date Brightness Start Highest point End Pass type
(mag) Time Alt. Az. Time Alt. Az. Time Alt. Az.
15 Nov 6.2 05:11:25 10° ENE 05:13:53 13° E 05:16:22 10° ESE visible
15 Nov 4.0 18:06:32 10° S 18:11:26 48° W 18:16:23 10° NNW visible
16 Nov 4.3 06:11:51 10° NNE 06:16:46 46° E 06:21:38 10° S visible
16 Nov 2.9 17:29:31 10° SSE 17:34:36 83° ENE 17:39:43 10° NNW visible
16 Nov 6.0 19:11:38 10° WSW 19:14:17 14° W 19:16:57 10° NW visible
17 Nov 5.7 05:35:44 10° NE 05:39:43 23° E 05:43:40 10° SE visible
17 Nov 3.4 16:53:14 10° SE 16:57:58 41° ENE 17:02:43 10° N visible
17 Nov 4.9 18:32:43 10° SSW 18:37:06 29° W 18:41:31 10° NW visible
18 Nov 6.5 05:01:27 10° ENE 05:02:27 11° E 05:03:27 10° E visible
18 Nov 3.5 17:55:07 10° S 18:00:07 60° W 18:05:11 10° NNW visible
19 Nov 4.8 06:00:42 10° NNE 06:05:26 37° E 06:10:07 10° SSE visible
19 Nov 2.9 17:18:19 10° SSE 17:23:21 67° ENE 17:28:25 10° N visible
19 Nov 5.7 18:59:29 10° SW 19:02:52 18° W 19:06:15 10° NW visible
20 Nov 5.9 05:24:49 10° NE 05:28:19 18° E 05:31:47 10° SE visible
20 Nov 3.6 16:42:14 10° SE 16:46:46 34° ENE 16:51:18 10° N visible
20 Nov 4.5 18:21:06 10° SSW 18:25:45 36° W 18:30:26 10° NNW visible
21 Nov 3.2 17:43:46 10° S 17:48:49 74° WSW 17:53:56 10° NNW visible
21 Nov 6.3 19:28:31 10° W 19:28:44 10° W 19:28:57 10° W visible
22 Nov 5.2 05:49:36 10° NNE 05:54:04 30° E 05:58:31 10° SSE visible
22 Nov 3.1 17:07:10 10° SSE 17:12:06 55° ENE 17:17:04 10° N visible
22 Nov 5.4 18:47:36 10° SW 18:51:28 22° W 18:55:22 10° NW visible
23 Nov 6.1 05:14:05 10° NE 05:16:54 15° E 05:19:42 10° ESE visible
23 Nov 3.8 16:31:19 10° ESE 16:35:35 28° ENE 16:39:52 10° N visible
23 Nov 4.1 18:09:34 10° S 18:14:24 44° W 18:19:17 10° NNW visible
24 Nov 4.1 06:14:46 10° NNE 06:19:44 50° E 06:24:39 10° S visible
24 Nov 2.9 17:32:28 10° SSE 17:37:33 89° ENE 17:42:40 10° NNW visible
24 Nov 6.0 19:15:01 10° WSW 19:17:18 13° W 19:19:35 10° WNW visible
